Время (UTC), дата Ветер
(°,м/с) 
Видим.   Явления Облачность Т
(°С)
Тd
(°С)
f(%) Тe
(°С)
Pmin
(гПа)
dP
(гПа)
Po
(мм)
O2
(г/м3)
Тmin Tmax R s Состояние
почвы
00 01.06.16 260 (З) 20000 м  в посл. час гроза{ливн. осадки}  10/3 600 м кучево-дожд., средняя 
[Cb calv|Ac trans]
+14.5 +12.7 89 +21  1011.3  -1  719  273           
03 01.06.16 300 (СЗ) 20000 м    8/0 средняя 
[Ac trans]
+16.7 +13.5 81 +25  1011.1  0.2  719  270  +13.5      влажная 
06 01.06.16 330 (СЗ) 20000 м    9/4 1000 м кучево-дожд., средняя 
[Cb calv|Ac trans]
+19.3 +14.7 75 +30  1011.2  0.5  720  268           
09 01.06.16 020 (С) 20000 м  в посл. час гроза{ливн. осадки}  10/6 200 м кучево-дожд., средняя 
[Cb calv|Ac und]
+16.2 +15.3 94 +26  1011.5  -0.3  720  270           
12 01.06.16 270 (З) 20000 м  {гроза, ливн. осадки}  8/3 600 м кучево-дожд., средняя 
[Cb calv|Ac trans]
+19.2 +13.9 71 +28  1010.6  -0.3  719  268           
15 01.06.16 290 (З) 5{10}  20000 м    8/4 600 м кучево-дожд., средняя 
[Cb calv|Ac trans]
+18.7 +14.1 75 +27  1010.7  719  268    +21     
18 01.06.16 320 (СЗ) 1300 м  ливневой дождь  10/8 200 м кучево-дожд., средняя 
[Cb calv|Ac und]
+16.1 +15.3 95 +27  1011.9  0.7  720  271           
21 01.06.16 270 (З) 10 км  {гроза, ливн. осадки}  10/8 300 м кучево-дожд., средняя 
[Cb calv|Ac und]
+15.9 +15.2 96 +26  1011.4  -0.5  720  271           
00 02.06.16 270 (З) 4000 м  ливневой дождь{гроза}  10/8 200 м кучево-дожд., средняя 
[Cb calv|Ac und]
+15.6 +14.9 96 +25  1010.4  -1  719  271           
03 02.06.16 310 (СЗ) 1500 м  ливневой дождь  10/8 100 м кучево-дожд., средняя 
[Cb cap|Ac und]
+15.7 +14.8 94 +25  1010.8  0.4  719  271  +15.3    24    влажная 
06 02.06.16 340 (С) 10 км  {ливн. осадки}  10/8 300 м кучево-дожд., средняя 
[Cb calv|Ac und]
+15.9 +15.1 95 +26  1011.6  0.7  720  271           
09 02.06.16 340 (С) 10 км    10/8 200 м кучево-дожд., средняя 
[Cb calv|Ac und]
+15.7 +14.3 91 +25  1011.9  0.2  720  271           
12 02.06.16 340 (С) 20000 м    10/6 600 м кучево-дожд., средняя 
[Cb calv|Ac und]
+16.2 +13.7 85 +24  1011.9  0.1  720  271           
15 02.06.16 320 (СЗ) 20000 м    8/6 600 м кучево-дожд., средняя 
[Cb calv|Ac trans]
+17.6 +12.9 74 +24  1011.5  0.1  720  270    +18.3     
18 02.06.16 350 (С) 20000 м    10/8 600 м кучево-дожд., средняя 
[Cb calv|Ac und]
+15.2 +13.4 89 +22  1012.3  0.4  720  272           
21 02.06.16 350 (С) 20000 м    8/4 1000 м средняя 
[Sc diur, vesp|Ac trans]
+14.4 +12.8 90 +22  1011.6  -0.8  719  273           
00 03.06.16 330 (СЗ) 20000 м    5/0 средняя 
[Ac trans]
+12.6 +11.4 92 +17  1011  -1  719  275           
03 03.06.16 360 (С) 20000 м    6/0 верхняя 
[Ci fib]
+14.3 +10.2 76 +17  1010.6  719  273  +12.3        влажная 
06 03.06.16 050 (СВ) 20000 м    6/5 600 м верхняя 
[Cu hum|Ci fib]
+17 +11.3 69 +21  1010.9  0.7  719  271           
09 03.06.16 050 (СВ) 20000 м    8/6 600 м верхняя 
[Cu med, cong|Ci fib]
+18.7 +11.2 62 +23  1010.5  719  269           
12 03.06.16 050 (СВ) 20000 м    8/6 1000 м верхняя 
[Cu med, cong|Ci fib]
+19.3 +8.8 51 +20  1009.4  -1  719  269           
15 03.06.16 070 (В) 20000 м    10/6 1000 м кучево-дожд., средняя 
[Cb calv|Ac und]
+17.6 +9.6 59 +19  1009.6  0.1  718  270    +20.3       
18 03.06.16 170 (Ю) 20000 м  слаб. ливневой дождь  10/6 1000 м кучево-дожд., средняя 
[Cb cap|Ac und]
+14.2 +11.4 83 +18  1010.4  0.1  719  273           
21 03.06.16 130 (ЮВ) 20000 м  в посл. час ливневой дождь  10/4 1000 м кучево-дожд., средняя 
[Cb calv|Ac und]
+14.1 +12.3 89 +19  1008.7  -1.6  717  272           
00 04.06.16 080 (В) 20000 м  {ливн. осадки}  10/3 1000 м средняя 
[Sc diur, vesp|Ac und]
+13.5 +11.6 88 +18  1008  -0.8  717  273           
03 04.06.16 100 (В) 20000 м    10/3 1000 м средняя 
[Sc diur, vesp|Ac und]
+13.3 +10.6 84 +16  1007.7  -0.3  717  273  +13.2    0.5    влажная 
06 04.06.16 120 (ЮВ) 20000 м    10/3 600 м средняя 
[Sc|Ac und]
+15.4 +11.3 77 +19  1007.6  0.3  717  271           
09 04.06.16 140 (ЮВ) 20000 м  {ливн. осадки}  10/8 300 м кучево-дожд., средняя 
[Cb calv|Ac und]
+15.9 +14 88 +24  1007.7  0.2  717  270           
12 04.06.16 230 (ЮЗ) 20000 м  {ливн. осадки}  10/5 600 м кучево-дожд., средняя 
[Cb calv|Ac und]
+18.2 +12.7 70 +25  1007.8  0.4  717  268           
15 04.06.16 040 (СВ) 20000 м  слаб. ливневой дождь  10/8 600 м кучево-дожд., средняя 
[Cb cap|Ac und]
+15.9 +14.3 90 +25  1008.5  0.3  717  270    +19.1  0.5     
18 04.06.16 060 (СВ) 2000 м  дымка{ливн. осадки}  10/8 100 м кучево-дожд., средняя 
[Cb calv|Ac und]
+14.8 +14 95 +23  1009.5  0.7  718  272           
21 04.06.16 030 (СВ) 2000 м  дымка{ливн. осадки}  10/8 100 м кучево-дожд., средняя 
[Cb calv|Ac und]
+14.7 +13.9 95 +24  1008.9  -0.6  718  271           
00 05.06.16 050 (СВ) 0200 м  туман  ?/?  
+14 +13.3 96 +22  1009  718  272           
03 05.06.16 120 (ЮВ) 0600 м  туман{ливн. осадки}  ?/?  
+14.1 +13.4 96 +21  1009.7  0.6  718  272  +13.9      влажная 
06 05.06.16 300 (СЗ) 20000 м  {ливн. осадки, туман}  9/4 600 м кучево-дожд., средняя 
[Cb calv|Ac trans]
+16.7 +12.3 75 +22  1010  0.8  719  270           
09 05.06.16 270 (З) 7-10{10}  20000 м    8/4 600 м кучево-дожд., средняя 
[Cb calv|Ac trans]
+19.7 +13.1 66 +27  1010  0.5  719  268           
12 05.06.16 290 (З) 6-10{14}  20000 м    8/4 600 м кучево-дожд., средняя 
[Cb calv|Ac trans]
+18.4 +12.6 69 +24  1010.6  0.3  719  269           
15 05.06.16 290 (З) 4{10}  20000 м  в посл. час ливневой дождь  8/3 600 м кучево-дожд., средняя 
[Cb calv|Ac trans]
+17.3 +13.9 80 +26  1011.3  0.5  720  270    +19.7  0.8     
18 05.06.16 250 (З) 20000 м  {ливн. осадки}  3/3 1000 м средняя 
[Sc diur, vesp|Ac trans]
+13.7 +12.4 92 +19  1013.1  720  274           
21 05.06.16 300 (СЗ) 20000 м    3/0 средняя 
[Ac trans]
+14.3 +12.7 90 +20  1013.4  0.5  721  273           
00 06.06.16 290 (З) 20000 м    ясно 
+13.9 +12.9 94 +20  1012.8  -0.7  720  274           
03 06.06.16 250 (З) 10 км    3/0 средняя 
[Ac trans]
+14.8 +13.6 93 +22  1013  0.4  721  273  +13.3        влажная 
06 06.06.16 250 (З) 20000 м    3/3 600 м 
[Cu hum]
+20.1 +10.9 55 +23  1012.1  721  268           
09 06.06.16 280 (З) 20000 м    5/5 1000 м 
[Cu hum]
+22.3 +8.2 40 +22  1011.5  -0.2  720  267           
12 06.06.16 280 (З) 20000 м    4/4 1000 м 
[Cu hum]
+23.1 +9.9 43 +25  1010.3  -1  720  266           
15 06.06.16 290 (З) 20000 м    5/3 1000 м средняя 
[Cu hum|Ac trans]
+22.3 +10.2 46 +25  1010.2  -0.3  719  266    +23.7       
18 06.06.16 290 (З) 20000 м    8/3 1000 м кучево-дожд., средняя 
[Cb calv|Ac trans]
+19.2 +11.3 60 +24  1011.6  0.9  720  269           
21 06.06.16 240 (ЮЗ) 20000 м    10/6 1000 м кучево-дожд., средняя 
[Cb calv|Ac und]
+16.2 +13 81 +22  1011.4  -0.7  720  271           
00 07.06.16 290 (З) 20000 м  слаб. ливневой дождь  10/6 1000 м кучево-дожд., средняя 
[Cb calv|Ac und]
+16.1 +12.7 80 +23  1010.3  -1.1  719  271           
03 07.06.16 280 (З) 20000 м  {ливн. осадки}  4/1 1000 м верхняя 
[Sc diur, vesp|Ci fib]
+16.1 +13 82 +22  1009.8  -0.4  718  271  +15.1    0.5    влажная 
06 07.06.16 290 (З) 20000 м  {ливн. осадки}  8/4 1000 м кучево-дожд., средняя 
[Cb calv|Ac trans]
+17.7 +13.2 75 +26  1009.9  -0.4  719  269           
09 07.06.16 310 (СЗ) 20000 м  гроза без осадков  8/8 600 м кучево-дожд. 
[Cb calv]
+19.9 +13.2 65 +27  1009.3  -0.2  719  267           
12 07.06.16 330 (СЗ) 4{10}  20000 м  {гроза}  9/9 600 м кучево-дожд. 
[Cb calv]
+19.6 +11.8 61 +25  1009.5  -0.1  719  268           
15 07.06.16 360 (С) 20000 м    9/5 1000 м кучево-дожд., средняя 
[Cb calv|Ac trans]
+17.9 +11.9 68 +23  1010.3  0.5  719  270    +21.2       
18 07.06.16 350 (С) 20000 м  в посл. час ливневой дождь  9/5 1000 м кучево-дожд., средняя 
[Cb calv|Ac trans]
+14.6 +12 84 +19  1013.1  2.1  721  273           
21 07.06.16 200 (Ю) 20000 м  {ливн. осадки}  10/5 1000 м кучево-дожд., средняя 
[Cb calv|Ac und]
+12.8 +11.1 89 +17  1014.1  0.6  721  275           
00 08.06.16 330 (СЗ) 20000 м  {ливн. осадки}  6/0 средняя 
[Ac trans]
+11.6 +10.5 93 +14  1014.4  721  277           
03 08.06.16 010 (С) 20000 м    8/3 1000 м средняя 
[Sc|Ac trans]
+11.6 +10.2 91 +14  1014.7  0.2  721  277  +10.8    0.5    влажная 
06 08.06.16 070 (В) 20000 м    10/3 300 м средняя 
[St|Ac und]
+14.5 +9.4 71 +17  1014.5  0.4  722  274           
09 08.06.16 340 (С) 20000 м  слаб. ливневой дождь  10/5 600 м кучево-дожд., средняя 
[Cb cap|Ac und]
+15 +9.1 68 +16  1015  0.5  722  274           
12 08.06.16 040 (СВ) 20000 м  {ливн. осадки}  8/3 600 м кучево-дожд., средняя, верхняя 
[Cb cap|Ac As|Ci fib]
+16 +9.1 64 +17  1014.6  -0.2  722  273           
15 08.06.16 040 (СВ) 20000 м    10/4 1000 м кучево-дожд., средняя 
[Cb cap|Ac und]
+14.9 +8.6 66 +15  1015.1  0.3  722  274    +16.6  0.3     
18 08.06.16 060 (СВ) 20000 м  слаб. ливневой дождь  10/8 300 м кучево-дожд., средняя 
[Cb cap|Ac und]
+12.1 +10.3 89 +14  1016.8  1.2  723  277           
21 08.06.16 050 (СВ) 10 км  слаб. ливневой дождь  10/4 100 м кучево-дожд., средняя 
[Cb cap|Ac und]
+11.1 +10.1 94 +13  1016.6  -0.4  723  278           
00 09.06.16 080 (В) 20000 м  {ливн. осадки}  10/4 100 м средняя 
[St|Ac und]
+10.6 +9.6 94 +11  1016.1  -0.6  722  278           
03 09.06.16 070 (В) 10 км  слаб. ливневой дождь  10/8 100 м кучево-дожд., средняя 
[Cb cap|Ac und]
+10.3 +9.5 95 +11  1016.8  0.6  723  279  +10      влажная 
06 09.06.16 100 (В) 20000 м  {ливн. осадки}  10/6 300 м кучево-дожд., средняя 
[Cb calv|Ac und]
+12.8 +10.2 84 +14  1016.4  0.1  723  276           
09 09.06.16 090 (В) 20000 м    8/8 300 м кучево-дожд. 
[Cb calv]
+14.5 +9.3 71 +15  1015.5  0.1  722  275           
12 09.06.16 110 (В) 20000 м    9/5 300 м кучево-дожд., средняя 
[Cb calv|Ac trans]
+14.8 +10.2 74 +16  1015.1  -0.4  722  274           
15 09.06.16 130 (ЮВ) 20000 м    8/8 300 м кучево-дожд. 
[Cb calv]
+14 +10 77 +15  1015.5  0.2  722  275    +16.2       
18 09.06.16 100 (В) 20000 м    10/10 300 м 
[St]
+11.5 +9.7 89 +12  1016.5  0.5  722  278           
21 09.06.16 110 (В) 10 км    10/10 200 м 
[St]
+11 +9.8 92 +12  1016.3  0.5  722  278           
00 10.06.16 100 (В) 4000 м  дымка  10/10 100 м 
[St]
+11 +10.3 95 +12  1015.9  -0.4  722  278           
03 10.06.16 110 (В) 10 км    10/10 100 м 
[St]
+10.7 +9.9 95 +11  1016.3  0.3  722  278  +10.6        влажная 
06 10.06.16 110 (В) 6{10}  20000 м    10/8 200 м средняя 
[St|Ac und]
+11.7 +10.1 90 +12  1016.3  0.2  722  277           
09 10.06.16 100 (В) 7-10{10}  20000 м    10/8 300 м средняя 
[St|Ac und]
+12.9 +10.8 87 +15  1016.4  0.3  723  276           
12 10.06.16 090 (В) 6{11}  20000 м    9/5 300 м кучево-дожд., средняя 
[Cb calv|Ac trans]
+13.9 +11.4 85 +17  1016.2  723  275           
15 10.06.16 110 (В) 20000 м    10/8 300 м кучево-дожд., средняя 
[Cb calv|Ac und]
+14.3 +12 86 +19  1016.3  0.2  723  274    +14.8       
18 10.06.16 100 (В) 3000 м  ливневой дождь  10/8 100 м кучево-дожд., средняя 
[Cb cap|Ac und]
+12.3 +11.5 95 +15  1017.3  0.6  723  277           
21 10.06.16 100 (В) 10 км  {ливн. осадки}  10/8 300 м средняя 
[St|Ac und]
+12.3 +11.5 95 +16  1016.4  -0.9  723  276           
00 11.06.16 110 (В) 10 км  {ливн. осадки}  10/8 300 м средняя 
[St|Ac und]
+12.4 +11.7 95 +16  1015.6  -0.7  722  276           
03 11.06.16 130 (ЮВ) 20000 м    9/8 200 м кучево-дожд., средняя 
[Cb calv|Ac trans]
+12.3 +11.4 94 +15  1016.3  0.6  723  276  +11.6    0.5    влажная 
06 11.06.16 140 (ЮВ) 20000 м    9/5 300 м кучево-дожд., средняя 
[Cb calv|Ac trans]
+15.1 +12.2 83 +19  1016.2  0.3  723  274           
09 11.06.16 130 (ЮВ) 6{10}  20000 м    9/5 600 м кучево-дожд., средняя 
[Cb calv|Ac trans]
+18.3 +10.8 62 +21  1015.8  0.1  723  271           
12 11.06.16 110 (В) 20000 м    8/8 1000 м 
[Sc diur, vesp]
+19.3 +11.1 59 +22  1014.9  -0.6  722  270           
15 11.06.16 120 (ЮВ) 20000 м    8/8 1000 м 
[Sc diur, vesp]
+18.9 +10.9 60 +22  1015.2  0.2  723  270    +20.3       
18 11.06.16 130 (ЮВ) 20000 м    3/0 средняя 
[Ac trans]
+13.8 +11.6 87 +18  1016.8  0.6  723  275           
21 11.06.16 170 (Ю) 20000 м    ясно 
+12.2 +10.4 89 +14  1016.8  -0.2  723  277           
00 12.06.16 150 (ЮВ) 20000 м    ясно 
+12.6 +10.4 86 +14  1016.6  -0.2  723  276           
03 12.06.16 150 (ЮВ) 20000 м    ясно 
+14.1 +10.9 81 +17  1016.9  0.6  723  275  +11.7        сухая 
06 12.06.16 160 (Ю) 20000 м    4/1 600 м средняя 
[Cu hum|Ac trans]
+19.8 +11.8 60 +25  1016  0.2  723  269           
09 12.06.16 110 (В) 20000 м    8/4 600 м верхняя 
[Cu hum|Ci fib]
+21.8 +10.8 50 +25  1015.1  -0.5  723  268           
12 12.06.16 070 (В) 20000 м    8/4 600 м верхняя 
[Cu hum|Ci fib]
+23.1 +10.1 44 +25  1014.3  -0.5  722  267           
15 12.06.16 130 (ЮВ) 20000 м    8/3 600 м верхняя 
[Cu hum|Ci fib]
+22.7 +11.4 49 +27  1014  -0.4  722  266    +23.9       
18 12.06.16 120 (ЮВ) 20000 м    3/1 1000 м верхняя 
[Sc diur, vesp|Ci fib]
+17.1 +11.7 71 +22  1015.2  0.2  722  272           
21 12.06.16 130 (ЮВ) 20000 м    ясно 
+15.5 +10.3 71 +18  1014.9  -0.6  722  273           
00 13.06.16 150 (ЮВ) 20000 м    ясно 
+15 +10.1 72 +17  1014.2  -0.7  721  274           
03 13.06.16 150 (ЮВ) 20000 м    4/0 верхняя 
[Ci]
+16 +11 72 +20  1014  721  272  +13        сухая 
06 13.06.16 140 (ЮВ) 20000 м    5/0 верхняя 
[Ci]
+21.7 +10.7 50 +25  1012.4  -0.6  721  267           
09 13.06.16 130 (ЮВ) 20000 м    8/0 верхняя 
[Ci]
+24.3 +12.6 48 +30  1011  -0.8  720  264           
12 13.06.16 100 (В) 20000 м    8/3 600 м верхняя 
[Cu hum|Ci fib]
+25.1 +11.3 42 +29  1010.2  -0.7  720  263           
15 13.06.16 120 (ЮВ) 20000 м    3/0 верхняя 
[Ci fib]
+24.2 +10.9 43 +27  1010  -0.3  720  264    +25.5       
18 13.06.16 130 (ЮВ) 20000 м    ясно 
+18.1 +11.6 66 +23  1011.3  0.2  720  270           
21 13.06.16 120 (ЮВ) 20000 м    ясно 
+16.3 +10.4 68 +19  1010.7  -0.9  719  271           
00 14.06.16 140 (ЮВ) 20000 м    3/0 верхняя 
[Ci fib]
+15.2 +9.6 69 +16  1010.5  -0.5  719  273           
03 14.06.16 120 (ЮВ) 20000 м    4/0 верхняя 
[Ci fib]
+15.1 +10.6 74 +19  1009.9  -0.6  718  272  +13.8        сухая 
06 14.06.16 130 (ЮВ) 20000 м    4/0 верхняя 
[Ci fib]
+21.4 +12.9 58 +28  1008.5  -0.2  718  266           
09 14.06.16 120 (ЮВ) 20000 м    9/0 верхняя 
[Ci fib]
+25.6 +12.1 43 +31  1007.2  -0.6  718  262           
12 14.06.16 100 (В) 20000 м    ясно 
+26.1 +14.5 49 +35  1006.1  -0.9  717  261           
15 14.06.16 110 (В) 20000 м    10/0 средняя, верхняя 
[Ac trans|Ci fib]
+24.6 +16.4 60 +37  1005.6  -0.7  717  261    +26.5       
18 14.06.16 110 (В) 20000 м    9/0 средняя, верхняя 
[Ac trans|Ci fib]
+21.2 +14.5 66 +30  1006.4  0.1  717  265           
21 14.06.16 120 (ЮВ) 20000 м    9/0 средняя, верхняя 
[Ac trans|Ci fib]
+20.4 +15 71 +30  1006.1  -0.4  716  265           
00 15.06.16 220 (ЮЗ) 20000 м    8/0 средняя, верхняя 
[Ac trans|Ci fib]
+20.4 +14.8 70 +30  1006  716  265           
03 15.06.16 060 (СВ) 20000 м  в посл. час ливневой дождь  10/5 1000 м кучево-дожд., средняя 
[Cb calv|Ac und]
+20 +15.7 76 +31  1006.4  0.3  716  266  +18.6        сухая 
06 15.06.16 060 (СВ) 20000 м  {ливн. осадки}  10/4 1000 м кучево-дожд., средняя 
[Cb calv|Ac und]
+23.3 +16.3 65 +36  1005.9  0.1  717  262           
09 15.06.16 010 (С) 6{10}  20000 м    9/3 1000 м средняя 
[Sc diur, vesp|Ac trans]
+26.2 +14.2 48 +35  1005  -0.3  716  260           
12 15.06.16 060 (СВ) 6-10{11}  20000 м    8/1 600 м средняя, верхняя 
[Cu hum|Ac trans|Ci fib]
+26.1 +16.6 56 +39  1003.1  -1.8  715  259           
15 15.06.16 280 (З) 8-12{15}  10 км  гроза, ливневой дождь  10/8 300 м кучево-дожд., средняя 
[Cb cap|Ac und]
+19 +16.9 88 +33  1007.2  2.8  717  266    +26.9     
18 15.06.16 120 (ЮВ) 2{12}  20000 м  в посл. час ливневой дождь{гроза}  9/5 600 м кучево-дожд., средняя 
[Cb calv|Ac trans]
+18.3 +15.9 86 +31  1006.3  -1  716  267           
21 15.06.16 330 (СЗ) 20000 м    10/4 600 м кучево-дожд., средняя 
[Cb calv|Ac und]
+17.7 +16 90 +30  1007.5  717  268           
00 16.06.16 260 (З) 10 км    10/3 600 м кучево-дожд., средняя 
[Cb calv|Ac und]
+16.3 +15.4 94 +28  1008.1  0.3  717  269           
03 16.06.16 290 (З) 20000 м    10/4 600 м кучево-дожд., средняя 
[Cb calv|Ac und]
+17.7 +15.7 88 +29  1008.8  0.9  718  268  +16.2      влажная 
06 16.06.16 280 (З) 6{10}  20000 м  в посл. час ливневой дождь  10/3 1000 м кучево-дожд., средняя 
[Cb cap|Ac und]
+18.5 +15.4 82 +30  1010.7  719  268           
09 16.06.16 270 (З) 4{10}  20000 м  {ливн. осадки}  10/3 1000 м средняя 
[Sc|Ac und]
+19.5 +15.9 80 +31  1011.6  720  267           
12 16.06.16 310 (СЗ) 20000 м  {ливн. осадки}  6/3 600 м средняя, верхняя 
[Cu med, cong|Ac trans|Ci sp]
+23.1 +15.6 63 +34  1010.8  720  264           
15 16.06.16 330 (СЗ) 20000 м    8/4 600 м кучево-дожд., средняя, верхняя 
[Cb cap|Ac trans|Ci sp]
+23.1 +16.1 65 +35  1011.4  0.6  720  264    +23.7  0.5     
18 16.06.16 280 (З) 20000 м  гроза без осадков  8/3 600 м кучево-дожд., средняя, верхняя 
[Cb cap|Ac As|Ci ing]
+19.8 +16.1 79 +33  1013.6  1.6  722  268           
21 16.06.16 260 (З) 20000 м  {гроза, ливн. осадки}  10/3 1000 м кучево-дожд., средняя 
[Cb cap|Ac und]
+18 +15.5 85 +29  1014.9  0.9  722  270           
00 17.06.16 240 (ЮЗ) 20000 м  {гроза, ливн. осадки}  10/3 1000 м средняя 
[Sc|Ac und]
+17.7 +14.8 83 +27  1015.4  0.4  723  270           
03 17.06.16 290 (З) 20000 м    10/4 1000 м кучево-дожд., средняя 
[Cb calv|Ac und]
+18.7 +13.7 73 +27  1016.5  1.2  724  270  +17.3        сухая 
06 17.06.16 330 (СЗ) 20000 м    10/5 1000 м кучево-дожд., средняя 
[Cb calv|Ac und]
+21.4 +15.4 69 +32  1017.3  1.2  724  267           
09 17.06.16 тихо ()   20000 м    10/5 600 м кучево-дожд., средняя 
[Cb calv|Ac und]
+22.4 +15.8 66 +33  1017.7  0.6  725  267           
12 17.06.16 тихо ()   20000 м  {ливн. осадки}  9/5 600 м кучево-дожд., средняя 
[Cb calv|Ac trans]
+23.3 +16.4 65 +36  1017.6  0.1  725  266           
15 17.06.16 020 (С) 20000 м    8/4 1000 м кучево-дожд., средняя, верхняя 
[Cb calv|Ac trans|Ci fib]
+24.2 +15.7 59 +35  1017.6  -0.1  725  265    +25.2       
18 17.06.16 170 (Ю) 20000 м    5/0 верхняя 
[Ci fib]
+20.9 +16.7 77 +34  1019.5  1.2  726  268           
21 17.06.16 тихо ()   20000 м    4/3 1000 м кучево-дожд., средняя 
[Cb calv|Ac trans]
+19 +15.7 81 +30  1019.1  -0.7  725  270           
00 18.06.16 310 (СЗ) 20000 м    8/4 1000 м кучево-дожд., средняя 
[Cb calv|Ac trans]
+19 +16.5 85 +33  1019  0.1  725  270           
03 18.06.16 320 (СЗ) 20000 м    6/3 1500 м средняя 
[Sc diur, vesp|Ac trans]
+18.9 +15.5 81 +30  1020.1  726  270  +17.1        сухая 
06 18.06.16 230 (ЮЗ) 20000 м  гроза, ливневой дождь  9/6 600 м кучево-дожд., средняя 
[Cb cap|Ac trans]
+18.4 +17.6 95 +34  1020.8  0.6  727  270           
09 18.06.16 360 (С) 20000 м  в посл. час гроза{ливн. осадки}  6/4 1000 м кучево-дожд., верхняя 
[Cb calv|Ci fib]
+25.5 +15.7 55 +36  1019  -0.5  726  264           
12 18.06.16 070 (В) 20000 м  {гроза, ливн. осадки}  8/4 600 м верхняя 
[Cu med, cong|Ci fib]
+27.9 +16.9 51 +41  1017.2  -1.3  725  261           
15 18.06.16 190 (Ю) 10 км  гроза, ливневой дождь  8/5 300 м кучево-дожд., средняя 
[Cb cap|Ac trans]
+20.8 +19.2 91 +39  1018.6  0.2  725  267    +28.7  11     
18 18.06.16 360 (С) 20000 м  {гроза, ливн. осадки}  9/0 верхняя 
[Ci fib]
+22.5 +20.1 86 +43  1018.3  -0.1  725  265           
21 18.06.16 340 (С) 20000 м    6/0 верхняя 
[Ci fib]
+20.6 +18.8 89 +38  1018.1  -0.6  725  267           
00 19.06.16 тихо ()   20000 м    8/0 верхняя 
[Ci fib]
+18.2 +16.4 89 +30  1017.8  -0.7  724  270           
03 19.06.16 250 (З) 20000 м    ясно 
+21.1 +17.5 80 +36  1017.2  724  267  +17.5      влажная 
06 19.06.16 110 (В) 20000 м    ясно 
+26.1 +17.7 60 +41  1017.3  0.9  725  263           
09 19.06.16 060 (СВ) 20000 м    3/0 средняя 
[Ac trans]
+28.9 +16.3 47 +41  1016.3  -0.6  725  261           
12 19.06.16 060 (СВ) 20000 м    6/1 600 м верхняя 
[Cu med, cong|Ci]
+30.8 +12.9 33 +37  1015.7  -0.3  724  260           
15 19.06.16 070 (В) 20000 м    6/0 средняя 
[Ac trans]
+28.3 +16.6 49 +41  1015.3  -0.7  724  261    +30.9       
18 19.06.16 060 (СВ) 20000 м    8/3 1000 м средняя, верхняя 
[Sc|Ac lent|Ci sp]
+25.7 +16.3 56 +38  1016.5  0.7  724  263           
21 19.06.16 060 (СВ) 20000 м    6/0 средняя 
[Ac trans]
+23 +14.2 58 +31  1017.2  0.2  725  266           
00 20.06.16 210 (ЮЗ) 20000 м    6/0 средняя 
[Ac trans]
+19.6 +14.7 73 +30  1017.9  0.1  725  269           
03 20.06.16 050 (СВ) 20000 м    4/0 средняя, верхняя 
[Ac trans|Ci fib]
+21.6 +14.6 64 +30  1018.2  0.6  725  268  +18        сухая 
06 20.06.16 090 (В) 20000 м    1/0 верхняя 
[Ci fib]
+26.1 +16.9 57 +39  1018.5  1.1  726  263           
09 20.06.16 060 (СВ) 20000 м    1/0 средняя 
[Ac trans]
+30.2 +13.4 36 +37  1018.3  0.4  726  261           
12 20.06.16 060 (СВ) 20000 м    3/3 600 м 
[Cu med, cong]
+32.6 +11.9 28 +37  1016.6  -1.3  725  259           
15 20.06.16 090 (В) 5{13}  20000 м  гроза без осадков  9/4 600 м кучево-дожд., средняя 
[Cb calv|Ac trans]
+25.9 +14 48 +34  1018.7  0.9  726  264    +32.7       
18 20.06.16 220 (ЮЗ) 20000 м  {гроза}  8/4 600 м кучево-дожд., средняя 
[Cb calv|Ac trans]
+21.8 +15.2 66 +32  1020.2  0.7  727  268           
21 20.06.16 360 (С) 20000 м    6/0 средняя, верхняя 
[Ac trans|Ci]
+23.2 +12.7 52 +29  1020.5  0.5  727  267           
00 21.06.16 080 (В) 20000 м    3/0 верхняя 
[Ci fib]
+20.8 +13.4 63 +28  1020.3  -0.6  726  269           
03 21.06.16 180 (Ю) 20000 м    ясно 
+22.2 +15.2 65 +32  1020.5  0.5  727  268  +19.6        сухая 
06 21.06.16 040 (СВ) 20000 м    ясно 
+26.3 +16.8 56 +39  1020  0.2  727  263           
09 21.06.16 090 (В) 20000 м    3/3 600 м 
[Cu hum]
+29.2 +17.2 48 +43  1019.2  -0.2  727  261           
12 21.06.16 110 (В) 20000 м    3/3 600 м 
[Cu hum]
+31.1 +14 35 +39  1017.9  -1.1  726  260           
15 21.06.16 110 (В) 20000 м    3/3 600 м 
[Cu hum]
+30.3 +17.3 46 +44  1017.5  -0.4  726  259    +31.2       
18 21.06.16 060 (СВ) 20000 м    3/0 средняя 
[Ac trans]
+24.8 +15.3 56 +35  1019.4  0.9  726  265           
21 21.06.16 050 (СВ) 20000 м    ясно 
+23.2 +12.5 51 +29  1019.4  -0.3  726  267           
00 22.06.16 070 (В) 20000 м    ясно 
+20.9 +12.7 59 +27  1019.7  -0.2  726  269           
03 22.06.16 070 (В) 20000 м    ясно 
+23.6 +14.6 57 +32  1019.7  -0.2  726  266  +19.7        сухая 
06 22.06.16 100 (В) 20000 м    ясно 
+27.3 +17.7 56 +42  1019.2  0.2  727  262           
09 22.06.16 090 (В) 20000 м    3/3 600 м 
[Cu hum]
+30.7 +15.7 40 +42  1017.5  -1.1  726  260           
12 22.06.16 060 (СВ) 4{11}  20000 м    3/3 1000 м 
[Cu hum]
+31.2 +15 38 +41  1016  -1.3  725  259           
15 22.06.16 070 (В) 20000 м    4/3 1000 м верхняя 
[Cu hum|Ci fib]
+28.9 +15.2 43 +39  1016.1  -0.3  725  261    +31.9       
18 22.06.16 080 (В) 20000 м  слаб. ливневой дождь  8/4 1000 м кучево-дожд., средняя 
[Cb cap|Ac trans]
+26 +15 51 +36  1016.9  0.3  725  264           
21 22.06.16 020 (С) 20000 м  {ливн. осадки}  4/0 средняя 
[Ac trans]
+23.9 +14.5 56 +33  1017.2  0.1  725  265           
00 23.06.16 100 (В) 20000 м  {ливн. осадки}  3/0 средняя 
[Ac trans]
+21.2 +14.5 66 +30  1017  0.1  724  268           
03 23.06.16 360 (С) 20000 м    1/0 средняя 
[Ac trans]
+22.5 +16.3 68 +35  1017  0.2  724  266  +19.8        сухая 
06 23.06.16 080 (В) 20000 м    ясно 
+28.2 +17.1 51 +42  1016  724  261           
09 23.06.16 110 (В) 20000 м    3/3 600 м 
[Cu hum]
+30.4 +15.2 40 +40  1015.2  -0.4  724  259           
12 23.06.16 030 (СВ) 5{10}  20000 м  в посл. час гроза  10/5 1000 м кучево-дожд., средняя 
[Cb calv|Ac und]
+25.2 +15.3 54 +35  1015.2  -0.8  723  264           
15 23.06.16 350 (С) 6-10{11}  20000 м    10/6 1000 м кучево-дожд., средняя 
[Cb calv|Ac und]
+22.8 +16.6 68 +35  1016.1  0.5  724  266    +32       
18 23.06.16 320 (СЗ) 2{14}  20000 м    10/5 1000 м кучево-дожд., средняя 
[Cb calv|Ac und]
+20.9 +16.3 75 +33  1017  0.5  724  267           
21 23.06.16 320 (СЗ) 20000 м  {гроза, ливн. осадки}  10/6 600 м кучево-дожд., средняя 
[Cb calv|Ac und]
+20.1 +15.5 75 +31  1016.9  -0.3  724  268           
00 24.06.16 280 (З) 20000 м  {гроза, ливн. осадки}  9/3 600 м кучево-дожд., средняя 
[Cb calv|Ac trans]
+19.2 +15.8 81 +32  1015.9  -1.1  723  269           
03 24.06.16 340 (С) 20000 м    8/3 1000 м кучево-дожд., средняя 
[Cb calv|Ac trans]
+18.8 +15.9 83 +30  1016.7  0.6  724  269  +18.2    0.3    влажная 
06 24.06.16 090 (В) 20000 м    8/0 средняя, верхняя 
[Ac trans|Ci sp]
+22.3 +16.2 68 +34  1016  724  266           
09 24.06.16 040 (СВ) 20000 м    4/3 600 м средняя 
[Cu med, cong|Ac trans]
+26.5 +16.2 53 +38  1015.2  724  262           
12 24.06.16 060 (СВ) 20000 м    4/4 600 м 
[Cu med, cong]
+28.8 +15 43 +38  1013.2  -1.5  722  260           
15 24.06.16 020 (С) 20000 м    3/3 1000 м средняя 
[Cu med, cong|Ac cuf]
+28.2 +13.5 40 +35  1012.9  -0.5  722  261    +29.2       
18 24.06.16 030 (СВ) 20000 м    6/3 1000 м средняя 
[Sc diur, vesp|Ac trans]
+23.7 +13.6 53 +31  1014.7  723  265           
21 24.06.16 040 (СВ) 20000 м    3/0 средняя 
[Ac cuf]
+22.1 +13.3 57 +29  1015.1  0.1  723  267           
00 25.06.16 040 (СВ) 20000 м    1/0 средняя 
[Ac lent]
+20 +12.3 61 +25  1015.8  0.1  723  269           
03 25.06.16 060 (СВ) 20000 м    1/0 средняя 
[Ac trans]
+20.3 +12.5 61 +26  1016.9  724  269  +19.4        сухая 
06 25.06.16 060 (СВ) 20000 м    3/3 600 м 
[Cu hum]
+25.1 +11.8 43 +29  1016.3  0.2  724  265           
09 25.06.16 070 (В) 5-10{10}  20000 м    5/5 600 м 
[Cu hum]
+28.1 +11.2 35 +32  1015.7  724  262           
12 25.06.16 050 (СВ) 3{10}  20000 м    6/6 600 м 
[Cu hum]
+29.2 +9.9 30 +31  1015.1  -0.5  724  262           
15 25.06.16 030 (СВ) 20000 м    ясно 
+28.2 +10.1 32 +30  1014.9  -0.3  724  262    +29.5       
18 25.06.16 030 (СВ) 20000 м    ясно 
+23 +9 41 +24  1016.8  0.9  724  268           
21 25.06.16 060 (СВ) 20000 м    ясно 
+20.9 +9.3 47 +22  1017.3  0.1  724  269           
00 26.06.16 110 (В) 20000 м    ясно 
+18.3 +9.7 57 +20  1017.2  -0.5  724  272           
03 26.06.16 100 (В) 20000 м    1/0 средняя 
[Ac trans]
+20.5 +11.9 58 +25  1016.9  0.1  724  269  +16.9         
06 26.06.16 060 (СВ) 20000 м    ясно 
+25.4 +12.1 44 +30  1016.2  0.1  724  265           
09 26.06.16 070 (В) 5{12}  20000 м    ясно 
+28.9 +9.9 31 +31  1015.2  -0.4  724  262           
12 26.06.16 070 (В) 5{11}  20000 м    ясно 
+30.2 +9.3 27 +31  1013.6  -1.4  723  261           
15 26.06.16 070 (В) 20000 м    ясно 
+28.9 +9.3 29 +30  1012.5  -1.2  722  261    +30.5       
18 26.06.16 050 (СВ) 20000 м    ясно 
+24.9 +10 39 +27  1013  -0.2  722  265           
21 26.06.16 080 (В) 20000 м    ясно 
+19.8 +10.1 54 +22  1013.5  -0.4  721  269           
00 27.06.16 070 (В) 20000 м    ясно 
+17.6 +10 61 +20  1013.2  -0.6  721  271           
03 27.06.16 060 (СВ) 20000 м    ясно 
+21 +11.2 53 +25  1012.2  -0.3  721  268  +17.4        сухая 
06 27.06.16 100 (В) 20000 м    ясно 
+27.1 +13.5 43 +34  1010.7  -0.4  720  261           
09 27.06.16 110 (В) 8-11{13}  20000 м    ясно 
+30.6 +11.4 31 +35  1008.7  -1.4  719  259           
12 27.06.16 110 (В) 8-11{15}  20000 м    ясно 
+31.5 +10.8 28 +35  1007  -1.4  718  258           
15 27.06.16 110 (В) 7{13}  20000 м    ясно 
+29.9 +10.7 30 +33  1005.8  -1.5  717  259    +31.8       
18 27.06.16 110 (В) 4{10}  20000 м    ясно 
+22.4 +11.8 51 +27  1006.8  -0.2  717  265           
21 27.06.16 110 (В) 20000 м    ясно 
+20.6 +11.7 57 +25  1006.7  -0.4  717  266           
00 28.06.16 120 (ЮВ) 20000 м    ясно 
+17.6 +10.5 63 +21  1006.5  -0.7  716  269           
03 28.06.16 120 (ЮВ) 20000 м    3/3 600 м верхняя 
[Sc|Ci fib]
+19.5 +11.3 59 +24  1006  0.1  716  267  +16.6        сухая 
06 28.06.16 100 (В) 20000 м    6/0 верхняя 
[Ci]
+26.3 +12.1 41 +31  1004.7  0.1  716  261           
09 28.06.16 100 (В) 7-10{13}  20000 м    6/0 верхняя 
[Ci]
+30.2 +10.8 30 +33  1003.8  -0.2  716  258           
12 28.06.16 100 (В) 7{10}  20000 м    8/3 1000 м верхняя 
[Cu hum|Ci]
+31.6 +10.1 27 +34  1002.9  -0.7  715  257           
15 28.06.16 230 (ЮЗ) 20000 м    9/3 1000 м средняя 
[Sc|Ac trans]
+25.7 +16.9 58 +39  1003.1  -0.6  715  260    +32.1       
18 28.06.16 130 (ЮВ) 20000 м    8/3 1000 м средняя, верхняя 
[Sc|Ac trans|Ci]
+22.4 +17.2 72 +37  1004.4  0.7  715  263           
21 28.06.16 290 (З) 20000 м    6/0 верхняя 
[Ci]
+21 +17.6 81 +36  1004.7  -0.1  716  264           
00 29.06.16 250 (З) 20000 м    8/0 средняя 
[Ac trans]
+21 +19.5 91 +40  1004.3  -0.4  715  263           
03 29.06.16 250 (З) 10 км    8/3 1000 м кучево-дожд., средняя, верхняя 
[Cb cap|Ac As|Ci fib]
+21.1 +19.3 89 +40  1005.7  1.4  716  263  +19.7        сухая 
06 29.06.16 290 (З) 20000 м    6/3 1000 м верхняя 
[Sc|Ci]
+25.6 +18.1 63 +42  1006.3  1.3  717  260           
09 29.06.16 310 (СЗ) 20000 м    8/4 600 м средняя 
[Sc|Ac trans]
+28.8 +16.5 47 +42  1006.2  0.3  717  258           
12 29.06.16 060 (СВ) 8-13{13}  20000 м    8/5 600 м кучево-дожд., средняя 
[Cb calv|Ac trans]
+26 +17.6 60 +41  1007  0.4  718  260           
15 29.06.16 170 (Ю) 1{13}  20000 м  в посл. час гроза  8/3 600 м кучево-дожд., средняя 
[Cb calv|Ac trans]
+22.5 +15.5 65 +33  1008.1  0.3  718  264    +30.7       
18 29.06.16 320 (СЗ) 20000 м  {гроза}  5/0 средняя 
[Ac trans]
+22.5 +17.4 73 +37  1009.1  0.9  719  264           
21 29.06.16 250 (З) 20000 м    3/0 средняя 
[Ac trans]
+20.1 +17.7 86 +35  1009.2  -0.3  719  266           
00 30.06.16 320 (СЗ) 20000 м    3/0 верхняя 
[Ci fib]
+21 +17.3 79 +35  1009.1  0.1  719  265           
03 30.06.16 340 (С) 20000 м    4/0 верхняя 
[Ci fib]
+21.3 +17.6 79 +36  1009.5  0.4  719  265  +19.3        сухая 
06 30.06.16 040 (СВ) 20000 м    10/1 600 м верхняя 
[Cu hum|Ci fib]
+26.5 +18.3 61 +43  1008.9  0.3  719  260           
09 30.06.16 070 (В) 20000 м    9/5 600 м верхняя 
[Cu hum|Ci fib]
+29.3 +14.6 41 +38  1008.2  -0.3  719  259           
12 30.06.16 010 (С) 6{11}  20000 м    9/6 1000 м кучево-дожд., верхняя 
[Cb calv|Ci fib]
+28.8 +17.6 51 +44  1007  -1.1  718  258           
15 30.06.16 220 (ЮЗ) 10-14{18}  1000 м  гроза, ливневой дождь  10/8 200 м кучево-дожд., средняя 
[Cb cap|Ac und]
+17.2 +15.8 91 +27  1010.9  1.7  719  269    +30.6  13     
18 30.06.16 020 (С) 4{16}  20000 м  гроза, ливневой дождь  10/8 300 м кучево-дожд., средняя 
[Cb cap|Ac und]
+16.6 +15.8 95 +28  1010.4  -0.6  719  270           
21 30.06.16 210 (ЮЗ) 20000 м  {гроза, ливн. осадки}  10/8 200 м кучево-дожд., средняя 
[Cb calv|Ac und]
+17.2 +15.2 88 +27  1010.1  0.1  719  269           
00 01.07.16 210 (ЮЗ) 20000 м  {гроза, ливн. осадки}  10/8 200 м кучево-дожд., средняя 
[Cb calv|Ac und]
+16.5 +15.2 92 +27  1010.9  0.6  719  270           
03 01.07.16 тихо ()   20000 м    8/5 600 м средняя, верхняя 
[Sc diur, vesp|Ac trans|Ci fib]
+17.7 +15.4 86 +28  1009.9  -0.7  719  269  +16.1    12    влажная 
06 01.07.16 110 (В) 20000 м    9/5 600 м средняя 
[Sc|Ac trans]
+21 +17.4 80 +35  1009.5  0.2  719  265           
09 01.07.16 090 (В) 20000 м    8/5 1000 м кучево-дожд., средняя 
[Cb calv|Ac trans]
+24.7 +15.9 58 +36  1009.2  0.2  719  262           
12 01.07.16 340 (С) 20000 м  гроза без осадков  8/8 1000 м кучево-дожд. 
[Cb calv]
+24.7 +16.9 62 +38  1008.8  -0.3  719  262           
15 01.07.16 220 (ЮЗ) 10 км  в посл. час гроза{ливн. осадки}  10/4 200 м кучево-дожд., средняя 
[Cb calv|Ac und]
+19.5 +18.5 94 +38  1010.3  0.6  719  266    +26.1     
18 01.07.16 310 (СЗ) 20000 м  {гроза, ливн. осадки}  9/5 1000 м кучево-дожд., средняя 
[Cb calv|Ac trans]
+19.6 +18.1 91 +37  1011.6  1.2  720  267           
21 01.07.16 210 (ЮЗ) 10 км    9/4 1000 м кучево-дожд., средняя 
[Cb calv|Ac trans]
+18.7 +17.9 95 +35  1011.5  -0.2  720  267           
00 02.07.16 тихо ()   10 км    6/3 1000 м кучево-дожд., средняя 
[Cb calv|Ac trans]
+17.7 +16.7 94 +31  1011.5  -0.3  720  269           
03 02.07.16 тихо ()   10 км    6/3 600 м средняя 
[Sc|Ac trans]
+17.7 +16.7 94 +31  1012.2  0.7  720  269  +16        влажная 
Время (UTC), дата Ветер
(°,м/с) 
Видим.   Явления Облачность Т
(°С)
Тd
(°С)
f(%) Тe
(°С)
Pmin
(гПа)
dP
(гПа)
Po
(мм)
O2
(г/м3)
Тmin Tmax R s Состояние
почвы